This is the latest recevied weather packets stored in our database for station/object IZ2MHJ-3. If no packets are shown the sender has not sent any weather packets the latest 10 day(s).
| Time | Temp. | Humidity | Pressure | Rain* | Wind** | Luminosity | Snow |
|---|---|---|---|---|---|---|---|
| 1787742881 | 32.78° C | 48% | 1018.1 hPa | - | - | - | - |
| 1787741681 | 35° C | 45% | 1018.1 hPa | - | - | - | - |
| 1787740481 | 33.89° C | 46% | 1018.3 hPa | - | - | - | - |
| 1787740268 | 33.33° C | 47% | 1018.4 hPa | - | - | - | - |
| 1787739068 | 30.56° C | 54% | 1018.6 hPa | - | - | - | - |
| 1787737867 | 31.11° C | 52% | 1018.7 hPa | - | - | - | - |
| 1787736667 | 30° C | 56% | 1018.6 hPa | - | - | - | - |
| 1787735467 | 30° C | 53% | 1018.8 hPa | - | - | - | - |
| 1787734267 | 28.89° C | 56% | 1018.9 hPa | - | - | - | - |
| 1787733066 | 26.67° C | 62% | 1019 hPa | - | - | - | - |
| 1787731866 | 26.11° C | 65% | 1018.9 hPa | - | - | - | - |
| 1787730666 | 26.67° C | 64% | 1018.8 hPa | - | - | - | - |
| 1787729465 | 28.33° C | 62% | 1018.6 hPa | - | - | - | - |
| 1787728265 | 26.67° C | 65% | 1018.6 hPa | - | - | - | - |
| 1787727065 | 25.56° C | 68% | 1018.5 hPa | - | - | - | - |
| 1787725864 | 25.56° C | 67% | 1018.3 hPa | - | - | - | - |
| 1787724664 | 24.44° C | 72% | 1018.1 hPa | - | - | - | - |
| 1787723464 | 23.89° C | 73% | 1018.2 hPa | - | - | - | - |
| 1787722263 | 22.78° C | 76% | 1018.1 hPa | - | - | - | - |
| 1787721063 | 22.22° C | 78% | 1018.2 hPa | - | - | - | - |
| 1787719863 | 21.11° C | 82% | 1018 hPa | - | - | - | - |
| 1787718663 | 20.56° C | 84% | 1017.9 hPa | - | - | - | - |
| 1787717462 | 20.56° C | 84% | 1017.8 hPa | - | - | - | - |
| 1787716262 | 20.56° C | 85% | 1017.6 hPa | - | - | - | - |
| 1787715062 | 20.56° C | 84% | 1017.5 hPa | - | - | - | - |
* Rain since midnight (hover to see other rain measurements)
** Current wind speed in m/s (hover to see current wind gust speed)